Regional Weather Roundup
Issued by NWS

Home | Current Version | Previous Version | Text Only | Print | Product List | Glossary Off
Versions: 1 2 3 4 5 6 7 8 9 10 11 12 13 14 15 16 17 18 19 20 21 22 23 24 25 26 27 28 29 30 31 32 33 34 35 36 37 38 39 40 41 42 43 44 45 46 47 48 49 50

000
ASUS43 KDTX 291001
RWRMI
MICHIGAN HOURLY REGIONAL WEATHER ROUNDUP
NATIONAL WEATHER SERVICE DETROIT/PONTIAC MI
600 AM EDT MON MAY 29 2017

NOTE: "FAIR" INDICATES FEW OR NO CLOUDS BELOW 12,000 FEET WITH NO
SIGNIFICANT WEATHER AND/OR OBSTRUCTION TO VISIBILITY.

MIZ047>049-052>055-059>063-066>070-074>076-081>083-291100-
SOUTHEAST LOWER MICHIGAN

CITY           SKY/WX    TMP DP  RH WIND       PRES   REMARKS
ADRIAN         CLEAR     54  52  93 W3        29.79R
ALMA           CLEAR     53  52  97 W10       29.73R
ANN ARBOR      CLEAR     52  52 100 S5        29.77R
BAD AXE        CLOUDY    57  56  94 SW6       29.71R
CARO           CLOUDY    54  53  99 CALM      29.72R
DETROIT CITY   PTCLDY    58  55  90 W7        29.76R
DETROIT        PTCLDY    58  55  90 W7        29.77R
FLINT          PTCLDY    55  52  89 SW6       29.75R
GROSSE ILE     PTCLDY    58  55  88 W6        29.76R
HILLSDALE      CLEAR     54  50  87 CALM      29.78S
HOWELL         CLEAR     55  51  86 CALM      29.76R

CITY           SKY/WX    TMP DP  RH WIND       PRES   REMARKS
JACKSON        CLEAR     55  52  89 SW6       29.77S
LAMBERTVILLE   CLEAR     58  55  91 W6        29.78R
LANSING        CLEAR     55  50  83 SW5       29.75R
LAPEER         MOCLDY    58  55  91 SW7       29.75R
MASON          CLEAR     56  52  88 CALM      29.76S
MONROE         CLEAR     58  55  91 W8        29.77R
MT. CLEMENS    PTCLDY    58  58 100 SW9       29.74R
PONTIAC        PTCLDY    56  53  90 W7        29.75R
PORT HOPE        N/A     57  56  96 SW5       29.67R
PORT HURON     CLEAR     55  54  94 CALM      29.73R
TRI CITIES     CLEAR     56  54  93 SW8       29.72R
MIDLAND        FAIR      54  52  95 W5        29.71R
TROY           MOCLDY    57  54  89 SW6       29.77R
SAGINAW HB     CLEAR     55  52  88 SW8       29.72R
$$
MIZ043>046-050>051-056>058-064>065-071>073-077>080-291100-
SOUTHWEST LOWER MICHIGAN

CITY           SKY/WX    TMP DP  RH WIND       PRES   REMARKS
BATTLE CREEK   CLEAR     55  51  86 SW8       29.77S
BENTON HARBOR  MOCLDY    52  48  86 CALM      29.77R
BIG RAPIDS     FOG       48  47  95 S3        29.71S VSB 1/2
COLDWATER      CLEAR     56  55  95 SW6       29.79R
FREMONT        FOG       47  47 100 CALM      29.72S VSB 1
HOLLAND        CLEAR     57  47  69 SW8       29.76R
GRAND RAPIDS   PTCLDY    54  50  86 SW7       29.74R
IONIA          FAIR      55  50  83 SW7       29.74R
KALAMAZOO      CLEAR     55  49  80 SW6       29.78R
LUDINGTON      CLEAR     46  46 100 CALM      29.69F FOG
MARSHALL       CLEAR     54  53  94 SW5       29.77S
MOUNT PLEASANT CLEAR     54  51  90 SW5       29.71R
MUSKEGON       PTCLDY    57  47  69 W9        29.73R
SOUTH HAVEN    CLEAR     54  51  89 CALM      29.76S
$$
MIZ016>042-291100-
NORTHERN LOWER MICHIGAN

CITY           SKY/WX    TMP DP  RH WIND       PRES   REMARKS
ALPENA         CLEAR     53  53 100 SW5       29.65S
BEAVER ISLAND  FOG       48  47  99 SW6       29.63R VSB 1/2
BELLAIRE       CLEAR     52  50  95 S3        29.67S
CADILLAC       CLEAR     49  48  97 SW5       29.69S
CHARLEVOIX     CLEAR     53  53 100 SW7       29.67S
FRANKFORT      CLEAR     53  45  73 CALM      29.67S
GAYLORD        CLEAR     52  48  86 SW10      29.67R
GRAYLING       CLEAR     46  45  97 CALM      29.69R
HARBOR SPRINGS CLEAR     51  51 100 CALM      29.65R FOG
HOUGHTON LAKE  CLEAR     55  50  83 SW6       29.69S
MANISTEE       CLEAR     44  43  96 E3        29.68F FOG
OSCODA         CLEAR     54  53  96 SW7       29.66R
PELLSTON       FOG       50  48  93 E3        29.65R VSB 1/4
ROGERS CITY    FOG       53  53  99 SW3       29.65S VSB 3/4
TRAVERSE CITY  CLEAR     53  47  79 SW6       29.65S
$$
MIZ007>008-015-291100-
EASTERN UPPER MICHIGAN

CITY           SKY/WX    TMP DP  RH WIND       PRES   REMARKS
KINROSS        CLOUDY    52  52 100 S5        29.65R
MACKINAC ISLAN FOG       50  50 100 CALM      29.65R VSB 3/4
NEWBERRY       CLOUDY    51  50  97 CALM      29.62R
S. S. MARIE    CLOUDY    54  53  97 SE3       29.63S FOG
MUNISING         N/A     52  51  97 S7        29.59S
$$
MIZ004>006-011>014-085-291100-
CENTRAL UPPER MICHIGAN

CITY           SKY/WX    TMP DP  RH WIND       PRES   REMARKS
MANISTIQUE     FOG       47  45  90 CALM      29.62R VSB 1/4
ESCANABA       FOG       48  48 100 CALM      29.62S VSB<1/4
SAWYER-GWINN   CLOUDY    49  48  97 S8        29.61R
$$
MIZ001>003-009>011-084-291100-
WESTERN UPPER MICHIGAN

CITY           SKY/WX    TMP DP  RH WIND       PRES   REMARKS
IRON MOUNTAIN  CLOUDY    49  45  86 W5        29.60S
HOUGHTON       LGT RAIN  52  49  89 W9        29.55S
COPPER HARBOR    N/A     51  50  96 SW5       29.54F
$$

ABBREVIATIONS USED IN REMARKS
   TC - TEMPERATURE IN CELSIUS
  WCI - WIND CHILL INDEX
   HX - HEAT INDEX
  VSB - VISIBILITY




USA.gov is the U.S. government's official web portal to all federal, state and local government web resources and services.